Time,TemperatureF,DewpointF,PressureIn,WindDirection,WindDirectionDegrees,WindSpeedMPH,WindSpeedGustMPH,Humidity,HourlyPrecipIn,Conditions,Clouds,dailyrainin,SoftwareType,DateUTC
2013-06-02 00:03:00,53.6,42.9,30.04,NNW,338,1.1,1.3,67,0.00,,,0.00,WUHU216HW,2013-06-02 07:03:00,
2013-06-02 00:08:00,53.5,43.1,30.04,NW,315,1.3,1.6,68,0.00,,,0.00,WUHU216HW,2013-06-02 07:08:00,
2013-06-02 00:13:00,53.3,43.0,30.04,WNW,293,1.1,1.6,68,0.00,,,0.00,WUHU216HW,2013-06-02 07:13:00,
2013-06-02 00:18:00,53.1,42.0,30.04,NW,315,0.7,1.1,66,0.00,,,0.00,WUHU216HW,2013-06-02 07:18:00,
2013-06-02 00:23:00,52.9,43.0,30.04,NW,315,1.1,1.1,69,0.00,,,0.00,WUHU216HW,2013-06-02 07:23:00,
2013-06-02 00:28:00,52.6,42.3,30.04,WNW,293,0.4,2.5,68,0.00,,,0.00,WUHU216HW,2013-06-02 07:28:00,
2013-06-02 00:33:00,52.4,42.6,30.04,WNW,293,0.4,2.5,69,0.00,,,0.00,WUHU216HW,2013-06-02 07:33:00,
2013-06-02 00:38:00,52.4,42.1,30.04,North,0,0.0,1.1,68,0.00,,,0.00,WUHU216HW,2013-06-02 07:38:00,
2013-06-02 00:43:00,52.4,41.8,30.04,NW,315,0.0,1.3,67,0.00,,,0.00,WUHU216HW,2013-06-02 07:43:00,
2013-06-02 00:48:00,52.4,41.8,30.04,ENE,68,0.0,1.3,67,0.00,,,0.00,WUHU216HW,2013-06-02 07:48:00,
2013-06-02 00:53:00,52.4,41.8,30.04,NW,315,0.0,1.1,67,0.00,,,0.00,WUHU216HW,2013-06-02 07:53:00,
2013-06-02 00:58:00,52.2,41.6,30.04,NW,315,0.0,0.4,67,0.00,,,0.00,WUHU216HW,2013-06-02 07:58:00,
2013-06-02 01:03:00,51.5,41.3,30.04,NW,315,0.0,0.4,68,0.00,,,0.00,WUHU216HW,2013-06-02 08:03:00,
2013-06-02 01:08:00,51.3,41.1,30.04,NW,315,0.0,0.4,68,0.00,,,0.00,WUHU216HW,2013-06-02 08:08:00,
2013-06-02 01:13:00,51.5,41.3,30.04,North,0,0.4,0.4,68,0.00,,,0.00,WUHU216HW,2013-06-02 08:13:00,
2013-06-02 01:18:00,51.3,41.1,30.03,NW,315,0.4,1.1,68,0.00,,,0.00,WUHU216HW,2013-06-02 08:18:00,
2013-06-02 01:23:00,51.3,41.1,30.03,NNW,338,0.2,1.1,68,0.00,,,0.00,WUHU216HW,2013-06-02 08:23:00,
2013-06-02 01:28:00,51.1,41.0,30.03,North,0,0.0,0.4,68,0.00,,,0.00,WUHU216HW,2013-06-02 08:28:00,
2013-06-02 01:33:00,51.1,41.0,30.03,North,0,0.4,0.4,68,0.00,,,0.00,WUHU216HW,2013-06-02 08:33:00,
2013-06-02 01:38:00,50.9,40.8,30.03,North,0,0.0,0.4,68,0.00,,,0.00,WUHU216HW,2013-06-02 08:38:00,
2013-06-02 01:44:00,50.8,41.1,30.03,WNW,293,0.4,0.4,69,0.00,,,0.00,WUHU216HW,2013-06-02 08:44:00,
2013-06-02 01:49:00,50.2,40.5,30.03,West,270,0.4,1.1,69,0.00,,,0.00,WUHU216HW,2013-06-02 08:49:00,
2013-06-02 01:54:00,49.7,40.0,30.02,West,270,1.1,1.1,69,0.00,,,0.00,WUHU216HW,2013-06-02 08:54:00,
2013-06-02 01:59:00,49.0,40.0,30.02,WNW,293,0.4,1.1,71,0.00,,,0.00,WUHU216HW,2013-06-02 08:59:00,
2013-06-02 02:04:00,48.6,39.2,30.02,NW,315,0.2,0.7,70,0.00,,,0.00,WUHU216HW,2013-06-02 09:04:00,
2013-06-02 02:09:00,48.6,40.0,30.02,WNW,293,0.4,1.6,72,0.00,,,0.00,WUHU216HW,2013-06-02 09:09:00,
2013-06-02 02:14:00,48.2,39.3,30.02,WNW,293,0.4,1.6,71,0.00,,,0.00,WUHU216HW,2013-06-02 09:14:00,
2013-06-02 02:19:00,47.9,39.6,30.02,WNW,293,0.9,0.9,73,0.00,,,0.00,WUHU216HW,2013-06-02 09:19:00,
2013-06-02 02:23:00,47.7,39.1,30.02,WNW,293,0.4,0.9,72,0.00,,,0.00,WUHU216HW,2013-06-02 09:23:00,
2013-06-02 02:28:00,47.7,39.1,30.01,North,0,0.0,0.9,72,0.00,,,0.00,WUHU216HW,2013-06-02 09:28:00,
2013-06-02 02:33:00,47.9,40.0,30.01,North,0,0.0,0.4,74,0.00,,,0.00,WUHU216HW,2013-06-02 09:33:00,
2013-06-02 02:38:00,47.9,39.2,30.01,North,0,0.0,0.0,72,0.00,,,0.00,WUHU216HW,2013-06-02 09:38:00,
2013-06-02 02:43:00,47.9,39.6,30.01,North,0,0.0,0.2,73,0.00,,,0.00,WUHU216HW,2013-06-02 09:43:00,
2013-06-02 02:48:00,47.9,39.2,30.01,West,270,0.0,0.4,72,0.00,,,0.00,WUHU216HW,2013-06-02 09:48:00,
2013-06-02 02:53:00,47.7,39.1,30.01,WNW,293,0.0,1.3,72,0.00,,,0.00,WUHU216HW,2013-06-02 09:53:00,
2013-06-02 02:58:00,47.2,38.6,30.01,WNW,293,0.4,1.3,72,0.00,,,0.00,WUHU216HW,2013-06-02 09:58:00,
2013-06-02 03:03:00,47.2,38.6,30.01,WNW,293,0.4,0.7,72,0.00,,,0.00,WUHU216HW,2013-06-02 10:03:00,
2013-06-02 03:08:00,47.0,39.2,30.01,NW,315,0.9,0.9,74,0.00,,,0.00,WUHU216HW,2013-06-02 10:08:00,
2013-06-02 03:13:00,46.8,39.0,30.01,WNW,293,0.7,1.1,74,0.00,,,0.00,WUHU216HW,2013-06-02 10:13:00,
2013-06-02 03:18:00,47.0,39.2,30.01,NW,315,1.1,1.6,74,0.00,,,0.00,WUHU216HW,2013-06-02 10:18:00,
2013-06-02 03:23:00,47.3,39.4,30.01,NNW,338,0.2,1.6,74,0.00,,,0.00,WUHU216HW,2013-06-02 10:23:00,
2013-06-02 03:28:00,47.5,39.6,30.01,NNW,338,0.0,1.6,74,0.00,,,0.00,WUHU216HW,2013-06-02 10:28:00,
2013-06-02 03:33:00,47.7,39.8,30.01,NNW,338,0.4,1.1,74,0.00,,,0.00,WUHU216HW,2013-06-02 10:33:00,
2013-06-02 03:38:00,47.9,39.6,30.01,NW,315,0.2,1.1,73,0.00,,,0.00,WUHU216HW,2013-06-02 10:38:00,
2013-06-02 03:43:00,47.9,40.0,30.01,NW,315,0.0,0.7,74,0.00,,,0.00,WUHU216HW,2013-06-02 10:43:00,
2013-06-02 03:48:00,48.1,39.8,30.00,NW,315,0.0,0.4,73,0.00,,,0.00,WUHU216HW,2013-06-02 10:48:00,
2013-06-02 03:53:00,47.9,39.6,30.00,West,270,0.0,0.0,73,0.00,,,0.00,WUHU216HW,2013-06-02 10:53:00,
2013-06-02 03:58:00,47.3,38.8,30.00,West,270,0.4,0.4,72,0.00,,,0.00,WUHU216HW,2013-06-02 10:58:00,
2013-06-02 04:03:00,46.6,38.1,30.00,West,270,0.0,0.4,72,0.00,,,0.00,WUHU216HW,2013-06-02 11:03:00,
2013-06-02 04:08:00,46.4,38.0,30.00,West,270,0.0,0.4,72,0.00,,,0.00,WUHU216HW,2013-06-02 11:08:00,
2013-06-02 04:13:00,46.1,37.6,30.00,West,270,0.0,0.0,72,0.00,,,0.00,WUHU216HW,2013-06-02 11:13:00,
2013-06-02 04:18:00,45.7,37.5,30.00,West,270,1.1,1.1,73,0.00,,,0.00,WUHU216HW,2013-06-02 11:18:00,
2013-06-02 04:23:00,45.0,36.8,30.00,West,270,0.2,1.1,73,0.00,,,0.00,WUHU216HW,2013-06-02 11:23:00,
2013-06-02 04:28:00,45.0,37.2,30.00,West,270,0.0,0.7,74,0.00,,,0.00,WUHU216HW,2013-06-02 11:28:00,
2013-06-02 04:33:00,44.8,37.0,29.99,West,270,0.0,0.0,74,0.00,,,0.00,WUHU216HW,2013-06-02 11:33:00,
2013-06-02 04:38:00,44.6,36.8,29.99,West,270,0.0,0.4,74,0.00,,,0.00,WUHU216HW,2013-06-02 11:38:00,
2013-06-02 04:44:00,44.5,36.6,29.99,WSW,248,0.9,0.9,74,0.00,,,0.00,WUHU216HW,2013-06-02 11:44:00,
2013-06-02 04:49:00,44.3,36.8,29.99,West,270,0.2,1.1,75,0.00,,,0.00,WUHU216HW,2013-06-02 11:49:00,
2013-06-02 04:54:00,44.1,37.4,29.99,West,270,0.4,1.1,77,0.00,,,0.00,WUHU216HW,2013-06-02 11:54:00,
2013-06-02 04:59:00,43.9,36.8,30.00,West,270,0.4,1.6,76,0.00,,,0.00,WUHU216HW,2013-06-02 11:59:00,
2013-06-02 05:04:00,43.7,36.3,29.99,West,270,0.0,1.6,75,0.00,,,0.00,WUHU216HW,2013-06-02 12:04:00,
2013-06-02 05:09:00,43.7,36.6,29.99,West,270,0.2,0.4,76,0.00,,,0.00,WUHU216HW,2013-06-02 12:09:00,
2013-06-02 05:14:00,43.6,36.5,30.00,West,270,0.2,1.1,76,0.00,,,0.00,WUHU216HW,2013-06-02 12:14:00,
2013-06-02 05:19:00,43.4,36.3,30.00,West,270,0.7,1.1,76,0.00,,,0.00,WUHU216HW,2013-06-02 12:19:00,
2013-06-02 05:24:00,43.4,36.3,30.00,West,270,0.0,0.9,76,0.00,,,0.00,WUHU216HW,2013-06-02 12:24:00,
2013-06-02 05:29:00,43.4,36.3,30.00,West,270,0.4,0.9,76,0.00,,,0.00,WUHU216HW,2013-06-02 12:29:00,
2013-06-02 05:34:00,43.6,36.8,30.00,WNW,293,0.9,0.9,77,0.00,,,0.00,WUHU216HW,2013-06-02 12:34:00,
2013-06-02 05:39:00,43.6,37.2,30.00,NW,315,1.1,1.1,78,0.00,,,0.00,WUHU216HW,2013-06-02 12:39:00,
2013-06-02 05:44:00,43.6,36.8,30.00,WNW,293,0.7,1.1,77,0.00,,,0.00,WUHU216HW,2013-06-02 12:44:00,
2013-06-02 05:49:00,43.7,37.0,30.00,West,270,0.0,1.1,77,0.00,,,0.00,WUHU216HW,2013-06-02 12:49:00,
2013-06-02 05:54:00,43.9,37.5,30.00,West,270,0.0,1.1,78,0.00,,,0.00,WUHU216HW,2013-06-02 12:54:00,
2013-06-02 05:59:00,43.9,37.2,30.00,West,270,0.7,0.7,77,0.00,,,0.00,WUHU216HW,2013-06-02 12:59:00,
2013-06-02 06:04:00,44.1,37.4,30.00,West,270,1.6,1.6,77,0.00,,,0.00,WUHU216HW,2013-06-02 13:04:00,
2013-06-02 06:09:00,43.9,36.8,30.01,NNW,338,0.4,1.6,76,0.00,,,0.00,WUHU216HW,2013-06-02 13:09:00,
2013-06-02 06:14:00,43.9,37.2,30.01,NW,315,0.4,1.3,77,0.00,,,0.00,WUHU216HW,2013-06-02 13:14:00,
2013-06-02 06:19:00,44.1,37.4,30.01,NW,315,1.1,1.1,77,0.00,,,0.00,WUHU216HW,2013-06-02 13:19:00,
2013-06-02 06:24:00,44.3,37.5,30.01,NW,315,0.7,1.1,77,0.00,,,0.00,WUHU216HW,2013-06-02 13:24:00,
2013-06-02 06:29:00,44.5,37.7,30.01,NW,315,0.4,1.1,77,0.00,,,0.00,WUHU216HW,2013-06-02 13:29:00,
2013-06-02 06:35:00,44.8,38.3,30.01,NW,315,1.1,1.3,78,0.00,,,0.00,WUHU216HW,2013-06-02 13:35:00,
2013-06-02 06:40:00,45.2,38.4,30.01,West,270,0.0,1.8,77,0.00,,,0.00,WUHU216HW,2013-06-02 13:40:00,
2013-06-02 06:45:00,45.4,38.6,30.01,NNW,338,0.0,1.8,77,0.00,,,0.00,WUHU216HW,2013-06-02 13:45:00,
2013-06-02 06:50:00,45.7,39.0,30.01,NW,315,1.1,1.8,77,0.00,,,0.00,WUHU216HW,2013-06-02 13:50:00,
2013-06-02 06:55:00,45.7,38.6,30.01,NW,315,0.0,1.8,76,0.00,,,0.00,WUHU216HW,2013-06-02 13:55:00,
2013-06-02 07:00:00,46.1,39.0,30.01,NW,315,0.7,1.1,76,0.00,,,0.00,WUHU216HW,2013-06-02 14:00:00,
2013-06-02 07:05:00,46.4,40.0,30.01,WNW,293,0.4,1.8,78,0.00,,,0.00,WUHU216HW,2013-06-02 14:05:00,
2013-06-02 07:10:00,46.8,40.0,30.01,NW,315,0.4,1.8,77,0.00,,,0.00,WUHU216HW,2013-06-02 14:10:00,
2013-06-02 07:15:00,47.2,40.3,30.01,West,270,0.4,0.9,77,0.00,,,0.00,WUHU216HW,2013-06-02 14:15:00,
2013-06-02 07:20:00,47.5,40.6,30.01,West,270,2.0,2.5,77,0.00,,,0.00,WUHU216HW,2013-06-02 14:20:00,
2013-06-02 07:25:00,47.9,40.6,30.01,WSW,248,1.8,2.5,76,0.00,,,0.00,WUHU216HW,2013-06-02 14:25:00,
2013-06-02 07:30:00,48.1,40.4,30.01,SSW,203,1.1,2.0,75,0.00,,,0.00,WUHU216HW,2013-06-02 14:30:00,
2013-06-02 07:35:00,48.4,40.8,30.01,SSW,203,1.6,1.8,75,0.00,,,0.00,WUHU216HW,2013-06-02 14:35:00,
2013-06-02 07:40:00,48.6,41.0,30.01,SSW,203,0.4,1.8,75,0.00,,,0.00,WUHU216HW,2013-06-02 14:40:00,
2013-06-02 07:45:00,49.0,41.3,30.01,ESE,113,1.8,1.8,75,0.00,,,0.00,WUHU216HW,2013-06-02 14:45:00,
2013-06-02 07:50:00,49.3,41.3,30.01,SE,135,1.8,2.5,74,0.00,,,0.00,WUHU216HW,2013-06-02 14:50:00,
2013-06-02 07:55:00,49.7,41.7,30.01,SE,135,1.8,2.5,74,0.00,,,0.00,WUHU216HW,2013-06-02 14:55:00,
2013-06-02 08:00:00,49.9,41.9,30.01,SSE,158,0.7,3.4,74,0.00,,,0.00,WUHU216HW,2013-06-02 15:00:00,
2013-06-02 08:05:00,50.0,42.0,30.01,SE,135,3.8,3.8,74,0.00,,,0.00,WUHU216HW,2013-06-02 15:05:00,
2013-06-02 08:10:00,50.4,42.0,30.01,SE,135,0.7,3.8,73,0.00,,,0.00,WUHU216HW,2013-06-02 15:10:00,
2013-06-02 08:15:00,50.6,42.2,30.01,ESE,113,0.0,2.7,73,0.00,,,0.00,WUHU216HW,2013-06-02 15:15:00,
2013-06-02 08:20:00,50.8,42.4,30.01,SW,225,0.2,1.3,73,0.00,,,0.00,WUHU216HW,2013-06-02 15:20:00,
2013-06-02 08:25:00,50.8,42.4,30.01,WSW,248,2.0,2.0,73,0.00,,,0.00,WUHU216HW,2013-06-02 15:25:00,
2013-06-02 08:30:00,51.1,42.5,30.01,NE,45,2.5,6.5,72,0.00,,,0.00,WUHU216HW,2013-06-02 15:30:00,
2013-06-02 08:35:00,51.7,42.7,30.01,North,0,2.5,6.5,71,0.00,,,0.00,WUHU216HW,2013-06-02 15:35:00,
2013-06-02 08:40:00,52.0,42.7,30.01,SSW,203,0.4,3.1,70,0.00,,,0.00,WUHU216HW,2013-06-02 15:40:00,
2013-06-02 08:45:00,52.0,42.2,30.00,ENE,68,0.2,2.2,69,0.00,,,0.00,WUHU216HW,2013-06-02 15:45:00,
2013-06-02 08:50:00,52.4,42.6,30.00,WSW,248,0.4,2.2,69,0.00,,,0.00,WUHU216HW,2013-06-02 15:50:00,
2013-06-02 08:55:00,52.7,41.7,30.00,NW,315,2.2,5.6,66,0.00,,,0.00,WUHU216HW,2013-06-02 15:55:00,
2013-06-02 09:00:00,52.9,41.9,30.01,NNW,338,1.1,5.6,66,0.00,,,0.00,WUHU216HW,2013-06-02 16:00:00,
2013-06-02 09:05:00,53.1,42.0,30.01,WNW,293,2.7,5.1,66,0.00,,,0.00,WUHU216HW,2013-06-02 16:05:00,
2013-06-02 09:10:00,53.1,41.6,30.01,NNE,23,2.2,5.1,65,0.00,,,0.00,WUHU216HW,2013-06-02 16:10:00,
2013-06-02 09:15:00,53.1,42.0,30.01,SSE,158,1.6,4.7,66,0.00,,,0.00,WUHU216HW,2013-06-02 16:15:00,
2013-06-02 09:20:00,53.6,42.5,30.00,NNE,23,4.7,4.7,66,0.00,,,0.00,WUHU216HW,2013-06-02 16:20:00,
2013-06-02 09:25:00,53.8,41.9,30.00,NW,315,2.0,4.7,64,0.00,,,0.00,WUHU216HW,2013-06-02 16:25:00,
2013-06-02 09:30:00,54.4,42.0,30.00,SE,135,3.1,3.6,63,0.00,,,0.00,WUHU216HW,2013-06-02 16:30:00,
2013-06-02 09:35:00,54.9,41.7,30.00,NNW,338,2.2,7.6,61,0.00,,,0.00,WUHU216HW,2013-06-02 16:35:00,
2013-06-02 09:41:00,55.3,40.2,30.00,NW,315,4.3,7.6,57,0.00,,,0.00,WUHU216HW,2013-06-02 16:41:00,
2013-06-02 09:46:00,55.6,40.1,30.00,North,0,1.3,4.3,56,0.00,,,0.00,WUHU216HW,2013-06-02 16:46:00,
2013-06-02 09:51:00,55.8,40.7,29.99,NE,45,2.7,2.7,57,0.00,,,0.00,WUHU216HW,2013-06-02 16:51:00,
2013-06-02 09:56:00,56.2,40.6,29.99,WSW,248,1.1,7.6,56,0.00,,,0.00,WUHU216HW,2013-06-02 16:56:00,
2013-06-02 10:01:00,56.2,39.7,29.99,NE,45,3.8,7.6,54,0.00,,,0.00,WUHU216HW,2013-06-02 17:01:00,
2013-06-02 10:06:00,56.5,40.1,29.99,ESE,113,0.2,3.8,54,0.00,,,0.00,WUHU216HW,2013-06-02 17:06:00,
2013-06-02 10:11:00,57.1,38.7,29.99,NNW,338,3.4,3.6,50,0.00,,,0.00,WUHU216HW,2013-06-02 17:11:00,
2013-06-02 10:16:00,57.2,38.4,29.99,North,0,4.0,4.7,49,0.00,,,0.00,WUHU216HW,2013-06-02 17:16:00,
2013-06-02 10:21:00,57.4,39.1,29.99,NE,45,5.1,9.8,50,0.00,,,0.00,WUHU216HW,2013-06-02 17:21:00,
2013-06-02 10:26:00,57.6,38.6,29.99,ESE,113,1.8,9.8,49,0.00,,,0.00,WUHU216HW,2013-06-02 17:26:00,
2013-06-02 10:31:00,58.0,39.5,30.00,North,0,3.4,6.9,50,0.00,,,0.00,WUHU216HW,2013-06-02 17:31:00,
2013-06-02 10:36:00,58.5,39.4,30.00,NE,45,5.6,6.9,49,0.00,,,0.00,WUHU216HW,2013-06-02 17:36:00,
2013-06-02 10:41:00,58.7,37.9,30.00,WSW,248,2.5,5.6,46,0.00,,,0.00,WUHU216HW,2013-06-02 17:41:00,
2013-06-02 10:46:00,58.7,38.4,30.00,SE,135,2.5,3.8,47,0.00,,,0.00,WUHU216HW,2013-06-02 17:46:00,
2013-06-02 10:51:00,59.0,38.8,30.00,East,90,3.1,8.7,47,0.00,,,0.00,WUHU216HW,2013-06-02 17:51:00,
2013-06-02 10:56:00,59.0,37.6,30.00,NW,315,5.4,8.7,45,0.00,,,0.00,WUHU216HW,2013-06-02 17:56:00,
2013-06-02 11:01:00,58.5,37.7,30.00,WNW,293,2.2,7.6,46,0.00,,,0.00,WUHU216HW,2013-06-02 18:01:00,
2013-06-02 11:06:00,58.7,39.1,30.00,East,90,2.5,7.6,48,0.00,,,0.00,WUHU216HW,2013-06-02 18:06:00,
2013-06-02 11:11:00,59.2,39.0,30.00,NW,315,4.7,4.7,47,0.00,,,0.00,WUHU216HW,2013-06-02 18:11:00,
2013-06-02 11:16:00,59.6,39.2,30.00,NNE,23,6.5,6.5,47,0.00,,,0.00,WUHU216HW,2013-06-02 18:16:00,
2013-06-02 11:21:00,59.8,38.9,30.00,ENE,68,7.6,7.6,46,0.00,,,0.00,WUHU216HW,2013-06-02 18:21:00,
2013-06-02 11:26:00,60.3,39.3,30.00,North,0,3.4,7.6,46,0.00,,,0.00,WUHU216HW,2013-06-02 18:26:00,
2013-06-02 11:31:00,60.8,40.4,30.00,ESE,113,1.8,4.9,47,0.00,,,0.00,WUHU216HW,2013-06-02 18:31:00,
2013-06-02 11:36:00,61.2,39.6,30.00,North,0,0.4,4.7,45,0.00,,,0.00,WUHU216HW,2013-06-02 18:36:00,
2013-06-02 11:41:00,61.2,40.1,30.00,NE,45,1.3,3.1,46,0.00,,,0.00,WUHU216HW,2013-06-02 18:41:00,
2013-06-02 11:46:00,61.2,38.4,30.00,WNW,293,6.3,6.3,43,0.00,,,0.00,WUHU216HW,2013-06-02 18:46:00,
2013-06-02 11:51:00,61.2,38.4,30.00,WNW,293,5.4,6.3,43,0.00,,,0.00,WUHU216HW,2013-06-02 18:51:00,
2013-06-02 11:56:00,60.8,39.2,30.00,SW,225,2.2,5.6,45,0.00,,,0.00,WUHU216HW,2013-06-02 18:56:00,
2013-06-02 12:01:00,61.6,38.7,30.00,North,0,2.9,5.6,43,0.00,,,0.00,WUHU216HW,2013-06-02 19:01:00,
2013-06-02 12:06:00,61.9,39.6,30.00,West,270,2.5,5.8,44,0.00,,,0.00,WUHU216HW,2013-06-02 19:06:00,
2013-06-02 12:11:00,62.3,39.4,30.00,NE,45,0.7,5.8,43,0.00,,,0.00,WUHU216HW,2013-06-02 19:11:00,
2013-06-02 12:17:00,62.6,38.5,29.99,NW,315,7.8,7.8,41,0.00,,,0.00,WUHU216HW,2013-06-02 19:17:00,
2013-06-02 12:22:00,61.9,39.6,29.99,SW,225,1.6,9.8,44,0.00,,,0.00,WUHU216HW,2013-06-02 19:22:00,
2013-06-02 12:27:00,62.6,40.3,29.99,SW,225,0.7,9.8,44,0.00,,,0.00,WUHU216HW,2013-06-02 19:27:00,
2013-06-02 12:32:00,63.0,40.1,29.99,NE,45,2.7,7.2,43,0.00,,,0.00,WUHU216HW,2013-06-02 19:32:00,
2013-06-02 12:37:00,63.0,39.4,29.99,North,0,1.8,4.5,42,0.00,,,0.00,WUHU216HW,2013-06-02 19:37:00,
2013-06-02 12:42:00,62.8,37.5,29.99,North,0,8.5,8.5,39,0.00,,,0.00,WUHU216HW,2013-06-02 19:42:00,
2013-06-02 12:47:00,62.8,38.2,29.99,South,180,1.8,8.5,40,0.00,,,0.00,WUHU216HW,2013-06-02 19:47:00,
2013-06-02 12:52:00,63.2,39.1,29.99,NNE,23,4.5,5.4,41,0.00,,,0.00,WUHU216HW,2013-06-02 19:52:00,
2013-06-02 12:57:00,63.2,38.4,29.99,East,90,2.2,7.8,40,0.00,,,0.00,WUHU216HW,2013-06-02 19:57:00,
2013-06-02 13:02:00,63.5,38.8,29.99,ENE,68,6.3,7.8,40,0.00,,,0.00,WUHU216HW,2013-06-02 20:02:00,
2013-06-02 13:07:00,63.9,39.7,29.99,ENE,68,1.8,6.3,41,0.00,,,0.00,WUHU216HW,2013-06-02 20:07:00,
2013-06-02 13:12:00,64.6,39.8,29.99,NW,315,0.7,3.8,40,0.00,,,0.00,WUHU216HW,2013-06-02 20:12:00,
2013-06-02 13:17:00,65.2,39.5,29.99,East,90,4.0,6.3,39,0.00,,,0.00,WUHU216HW,2013-06-02 20:17:00,
2013-06-02 13:22:00,65.3,39.0,29.99,ENE,68,1.6,6.3,38,0.00,,,0.00,WUHU216HW,2013-06-02 20:22:00,
2013-06-02 13:27:00,65.3,39.7,29.99,ENE,68,4.0,5.6,39,0.00,,,0.00,WUHU216HW,2013-06-02 20:27:00,
2013-06-02 13:32:00,65.2,38.1,29.99,NW,315,1.3,5.6,37,0.00,,,0.00,WUHU216HW,2013-06-02 20:32:00,
2013-06-02 13:37:00,65.0,39.3,29.98,North,0,1.1,6.9,39,0.00,,,0.00,WUHU216HW,2013-06-02 20:37:00,
2013-06-02 13:42:00,65.3,39.0,29.98,SSE,158,2.7,6.9,38,0.00,,,0.00,WUHU216HW,2013-06-02 20:42:00,
2013-06-02 13:47:00,65.9,38.7,29.98,NNW,338,3.8,4.7,37,0.00,,,0.00,WUHU216HW,2013-06-02 20:47:00,
2013-06-02 13:53:00,66.2,39.8,29.99,SSE,158,1.8,4.7,38,0.00,,,0.00,WUHU216HW,2013-06-02 20:53:00,
2013-06-02 13:58:00,66.4,37.1,29.98,NW,315,3.4,4.0,34,0.00,,,0.00,WUHU216HW,2013-06-02 20:58:00,
2013-06-02 14:03:00,66.2,36.9,29.98,SSW,203,3.1,4.7,34,0.00,,,0.00,WUHU216HW,2013-06-02 21:03:00,
2013-06-02 14:08:00,66.2,37.6,29.98,SSW,203,2.0,4.7,35,0.00,,,0.00,WUHU216HW,2013-06-02 21:08:00,
2013-06-02 14:13:00,66.6,39.3,29.98,NE,45,5.1,5.1,37,0.00,,,0.00,WUHU216HW,2013-06-02 21:13:00,
2013-06-02 14:18:00,67.0,37.5,29.98,ESE,113,6.9,6.9,34,0.00,,,0.00,WUHU216HW,2013-06-02 21:18:00,
2013-06-02 14:23:00,67.0,36.1,29.98,North,0,2.5,6.9,32,0.00,,,0.00,WUHU216HW,2013-06-02 21:23:00,
2013-06-02 14:28:00,66.8,37.4,29.98,South,180,1.3,7.8,34,0.00,,,0.00,WUHU216HW,2013-06-02 21:28:00,
2013-06-02 14:33:00,67.5,35.7,29.98,WNW,293,4.7,7.8,31,0.00,,,0.00,WUHU216HW,2013-06-02 21:33:00,
2013-06-02 14:38:00,67.3,37.1,29.98,NW,315,3.4,8.5,33,0.00,,,0.00,WUHU216HW,2013-06-02 21:38:00,
2013-06-02 14:43:00,67.5,38.0,29.98,ESE,113,1.1,8.5,34,0.00,,,0.00,WUHU216HW,2013-06-02 21:43:00,
2013-06-02 14:48:00,67.3,33.9,29.98,NNE,23,2.5,8.1,29,0.00,,,0.00,WUHU216HW,2013-06-02 21:48:00,
2013-06-02 14:53:00,67.0,36.8,29.98,East,90,3.4,8.1,33,0.00,,,0.00,WUHU216HW,2013-06-02 21:53:00,
2013-06-02 14:58:00,67.3,37.1,29.98,SE,135,2.2,3.4,33,0.00,,,0.00,WUHU216HW,2013-06-02 21:58:00,
2013-06-02 15:04:00,68.0,34.5,29.98,WSW,248,5.6,5.6,29,0.00,,,0.00,WUHU216HW,2013-06-02 22:04:00,
2013-06-02 15:09:00,67.7,35.9,29.98,West,270,8.7,8.7,31,0.00,,,0.00,WUHU216HW,2013-06-02 22:09:00,
2013-06-02 15:14:00,67.7,35.2,29.98,East,90,4.0,9.2,30,0.00,,,0.00,WUHU216HW,2013-06-02 22:14:00,
2013-06-02 15:19:00,67.9,36.8,29.97,South,180,2.0,9.2,32,0.00,,,0.00,WUHU216HW,2013-06-02 22:19:00,
2013-06-02 15:24:00,68.4,33.9,29.98,NNE,23,6.7,6.7,28,0.00,,,0.00,WUHU216HW,2013-06-02 22:24:00,
2013-06-02 15:29:00,68.0,34.5,29.98,NNE,23,6.3,7.6,29,0.00,,,0.00,WUHU216HW,2013-06-02 22:29:00,
2013-06-02 15:34:00,68.2,33.7,29.98,NNE,23,2.9,8.7,28,0.00,,,0.00,WUHU216HW,2013-06-02 22:34:00,
2013-06-02 15:39:00,68.6,33.9,29.98,NNE,23,2.5,8.7,28,0.00,,,0.00,WUHU216HW,2013-06-02 22:39:00,
2013-06-02 15:44:00,69.5,32.8,29.98,NE,45,3.8,7.2,26,0.00,,,0.00,WUHU216HW,2013-06-02 22:44:00,
2013-06-02 15:49:00,70.2,33.4,29.98,NW,315,6.3,7.2,26,0.00,,,0.00,WUHU216HW,2013-06-02 22:49:00,
2013-06-02 15:54:00,70.4,32.5,29.98,WNW,293,5.4,6.9,25,0.00,,,0.00,WUHU216HW,2013-06-02 22:54:00,
2013-06-02 15:59:00,69.8,33.0,29.98,South,180,1.1,6.9,26,0.00,,,0.00,WUHU216HW,2013-06-02 22:59:00,
2013-06-02 16:04:00,70.6,34.7,29.98,NW,315,3.1,6.9,27,0.00,,,0.00,WUHU216HW,2013-06-02 23:04:00,
2013-06-02 16:09:00,70.4,32.5,29.98,NNW,338,1.8,7.4,25,0.00,,,0.00,WUHU216HW,2013-06-02 23:09:00,
2013-06-02 16:14:00,72.2,34.0,29.98,NW,315,4.0,7.4,25,0.00,,,0.00,WUHU216HW,2013-06-02 23:14:00,
2013-06-02 16:19:00,73.6,33.2,29.98,WNW,293,6.9,6.9,23,0.00,,,0.00,WUHU216HW,2013-06-02 23:19:00,
2013-06-02 16:24:00,75.2,34.6,29.98,North,0,2.2,8.1,23,0.00,,,0.00,WUHU216HW,2013-06-02 23:24:00,
2013-06-02 16:29:00,74.9,33.3,29.98,SW,225,3.4,6.7,22,0.00,,,0.00,WUHU216HW,2013-06-02 23:29:00,
2013-06-02 16:34:00,76.0,33.1,29.98,NW,315,7.2,7.2,21,0.00,,,0.00,WUHU216HW,2013-06-02 23:34:00,
2013-06-02 16:39:00,75.8,32.9,29.98,SE,135,1.6,7.2,21,0.00,,,0.00,WUHU216HW,2013-06-02 23:39:00,
2013-06-02 16:44:00,75.4,28.4,29.98,ENE,68,5.6,7.6,18,0.00,,,0.00,WUHU216HW,2013-06-02 23:44:00,
2013-06-02 16:49:00,74.9,32.2,29.98,WNW,293,4.7,7.6,21,0.00,,,0.00,WUHU216HW,2013-06-02 23:49:00,
2013-06-02 16:54:00,76.1,33.3,29.98,North,0,2.2,5.4,21,0.00,,,0.00,WUHU216HW,2013-06-02 23:54:00,
2013-06-02 16:59:00,78.3,30.6,29.98,WNW,293,3.4,4.7,18,0.00,,,0.00,WUHU216HW,2013-06-02 23:59:00,
2013-06-02 17:04:00,77.6,30.1,29.98,SW,225,3.4,6.7,18,0.00,,,0.00,WUHU216HW,2013-06-03 00:04:00,
2013-06-02 17:09:00,76.9,31.1,29.98,ENE,68,3.6,6.7,19,0.00,,,0.00,WUHU216HW,2013-06-03 00:09:00,
2013-06-02 17:14:00,77.9,30.3,29.98,WNW,293,7.6,7.6,18,0.00,,,0.00,WUHU216HW,2013-06-03 00:14:00,
2013-06-02 17:19:00,76.5,30.9,29.98,NNW,338,2.5,7.6,19,0.00,,,0.00,WUHU216HW,2013-06-03 00:19:00,
2013-06-02 17:24:00,78.3,32.3,29.97,North,0,3.6,8.9,19,0.00,,,0.00,WUHU216HW,2013-06-03 00:24:00,
2013-06-02 17:29:00,76.3,29.1,29.97,NW,315,4.0,8.9,18,0.00,,,0.00,WUHU216HW,2013-06-03 00:29:00,
2013-06-02 17:34:00,74.9,32.2,29.98,NNE,23,1.1,8.3,21,0.00,,,0.00,WUHU216HW,2013-06-03 00:34:00,
2013-06-02 17:39:00,75.4,30.0,29.97,North,0,7.2,7.2,19,0.00,,,0.00,WUHU216HW,2013-06-03 00:39:00,
2013-06-02 17:45:00,73.6,31.2,29.98,North,0,2.0,7.2,21,0.00,,,0.00,WUHU216HW,2013-06-03 00:45:00,
2013-06-02 17:50:00,72.9,27.9,29.98,WSW,248,3.4,7.2,19,0.00,,,0.00,WUHU216HW,2013-06-03 00:50:00,
2013-06-02 17:55:00,71.8,30.7,29.98,NNW,338,4.7,6.3,22,0.00,,,0.00,WUHU216HW,2013-06-03 00:55:00,
2013-06-02 18:00:00,71.1,31.1,29.98,SW,225,2.9,6.3,23,0.00,,,0.00,WUHU216HW,2013-06-03 01:00:00,
2013-06-02 18:05:00,70.9,31.0,29.98,NNW,338,3.1,4.3,23,0.00,,,0.00,WUHU216HW,2013-06-03 01:05:00,
2013-06-02 18:10:00,70.2,30.3,29.98,North,0,5.4,5.4,23,0.00,,,0.00,WUHU216HW,2013-06-03 01:10:00,
2013-06-02 18:15:00,69.1,31.4,29.98,WNW,293,3.1,5.4,25,0.00,,,0.00,WUHU216HW,2013-06-03 01:15:00,
2013-06-02 18:20:00,68.8,32.1,29.98,WSW,248,0.9,3.4,26,0.00,,,0.00,WUHU216HW,2013-06-03 01:20:00,
2013-06-02 18:25:00,68.8,32.1,29.98,North,0,1.1,3.8,26,0.00,,,0.00,WUHU216HW,2013-06-03 01:25:00,
2013-06-02 18:30:00,68.4,31.8,29.98,South,180,2.0,7.8,26,0.00,,,0.00,WUHU216HW,2013-06-03 01:30:00,
2013-06-02 18:35:00,68.2,31.7,29.98,NW,315,6.9,7.8,26,0.00,,,0.00,WUHU216HW,2013-06-03 01:35:00,
2013-06-02 18:40:00,68.0,33.5,29.98,NNW,338,5.1,6.9,28,0.00,,,0.00,WUHU216HW,2013-06-03 01:40:00,
2013-06-02 18:45:00,68.6,31.0,29.98,NW,315,4.0,5.1,25,0.00,,,0.00,WUHU216HW,2013-06-03 01:45:00,
2013-06-02 18:50:00,69.3,32.6,29.99,WSW,248,1.1,5.4,26,0.00,,,0.00,WUHU216HW,2013-06-03 01:50:00,
2013-06-02 18:55:00,70.2,32.3,29.99,NNW,338,3.1,9.2,25,0.00,,,0.00,WUHU216HW,2013-06-03 01:55:00,
2013-06-02 19:00:00,69.5,35.7,29.99,NE,45,7.4,9.2,29,0.00,,,0.00,WUHU216HW,2013-06-03 02:00:00,
2013-06-02 19:05:00,68.4,36.6,29.99,North,0,1.1,7.4,31,0.00,,,0.00,WUHU216HW,2013-06-03 02:05:00,
2013-06-02 19:10:00,67.5,37.3,29.99,East,90,3.8,6.5,33,0.00,,,0.00,WUHU216HW,2013-06-03 02:10:00,
2013-06-02 19:15:00,66.8,38.1,29.99,ENE,68,2.9,6.5,35,0.00,,,0.00,WUHU216HW,2013-06-03 02:15:00,
2013-06-02 19:20:00,66.1,36.7,29.99,East,90,1.8,4.7,34,0.00,,,0.00,WUHU216HW,2013-06-03 02:20:00,
2013-06-02 19:25:00,65.5,37.7,30.00,East,90,0.9,6.3,36,0.00,,,0.00,WUHU216HW,2013-06-03 02:25:00,
2013-06-02 19:30:00,65.2,37.4,30.00,NE,45,3.1,6.3,36,0.00,,,0.00,WUHU216HW,2013-06-03 02:30:00,
2013-06-02 19:35:00,64.4,37.4,30.00,SE,135,1.3,4.3,37,0.00,,,0.00,WUHU216HW,2013-06-03 02:35:00,
2013-06-02 19:40:00,63.9,37.7,30.00,NNE,23,2.5,5.4,38,0.00,,,0.00,WUHU216HW,2013-06-03 02:40:00,
2013-06-02 19:45:00,63.4,37.2,30.00,NNW,338,2.5,5.4,38,0.00,,,0.00,WUHU216HW,2013-06-03 02:45:00,
2013-06-02 19:50:00,63.0,37.6,30.00,NNE,23,1.1,4.9,39,0.00,,,0.00,WUHU216HW,2013-06-03 02:50:00,
2013-06-02 19:55:00,62.3,37.6,30.00,East,90,0.9,4.9,40,0.00,,,0.00,WUHU216HW,2013-06-03 02:55:00,
2013-06-02 20:01:00,61.7,37.2,30.00,NNE,23,7.4,7.4,40,0.00,,,0.00,WUHU216HW,2013-06-03 03:01:00,
2013-06-02 20:06:00,61.2,36.7,30.00,ESE,113,3.8,7.4,40,0.00,,,0.00,WUHU216HW,2013-06-03 03:06:00,
2013-06-02 20:11:00,60.8,37.5,30.01,NNE,23,2.9,4.0,42,0.00,,,0.00,WUHU216HW,2013-06-03 03:11:00,
2013-06-02 20:16:00,60.1,36.3,30.01,SE,135,1.1,3.4,41,0.00,,,0.00,WUHU216HW,2013-06-03 03:16:00,
2013-06-02 20:21:00,59.8,36.0,30.01,NE,45,0.7,3.1,41,0.00,,,0.00,WUHU216HW,2013-06-03 03:21:00,
2013-06-02 20:26:00,59.4,36.2,30.01,ESE,113,1.1,4.9,42,0.00,,,0.00,WUHU216HW,2013-06-03 03:26:00,
2013-06-02 20:31:00,59.0,36.5,30.01,ESE,113,0.9,4.9,43,0.00,,,0.00,WUHU216HW,2013-06-03 03:31:00,
2013-06-02 20:36:00,58.7,36.2,30.01,ESE,113,0.2,4.7,43,0.00,,,0.00,WUHU216HW,2013-06-03 03:36:00,
2013-06-02 20:41:00,58.1,35.6,30.01,SSE,158,3.1,5.1,43,0.00,,,0.00,WUHU216HW,2013-06-03 03:41:00,
2013-06-02 20:46:00,57.6,36.4,30.02,ESE,113,2.2,5.1,45,0.00,,,0.00,WUHU216HW,2013-06-03 03:46:00,
2013-06-02 20:51:00,57.2,36.0,30.02,ESE,113,2.0,5.8,45,0.00,,,0.00,WUHU216HW,2013-06-03 03:51:00,
2013-06-02 20:56:00,57.1,35.8,30.02,East,90,1.1,5.8,45,0.00,,,0.00,WUHU216HW,2013-06-03 03:56:00,
2013-06-02 21:01:00,56.9,36.3,30.02,ESE,113,0.7,2.5,46,0.00,,,0.00,WUHU216HW,2013-06-03 04:01:00,
2013-06-02 21:06:00,56.5,35.9,30.03,ESE,113,0.4,2.9,46,0.00,,,0.00,WUHU216HW,2013-06-03 04:06:00,
2013-06-02 21:11:00,56.3,35.7,30.03,NE,45,1.8,3.4,46,0.00,,,0.00,WUHU216HW,2013-06-03 04:11:00,
2013-06-02 21:16:00,56.0,35.4,30.03,East,90,1.8,3.4,46,0.00,,,0.00,WUHU216HW,2013-06-03 04:16:00,
2013-06-02 21:21:00,55.8,35.2,30.04,SE,135,0.7,2.9,46,0.00,,,0.00,WUHU216HW,2013-06-03 04:21:00,
2013-06-02 21:26:00,55.4,34.8,30.04,ESE,113,0.7,1.8,46,0.00,,,0.00,WUHU216HW,2013-06-03 04:26:00,
2013-06-02 21:31:00,55.1,35.1,30.04,SE,135,0.9,1.8,47,0.00,,,0.00,WUHU216HW,2013-06-03 04:31:00,
2013-06-02 21:36:00,54.9,34.9,30.03,East,90,0.2,1.8,47,0.00,,,0.00,WUHU216HW,2013-06-03 04:36:00,
2013-06-02 21:41:00,54.7,35.3,30.04,NE,45,0.9,1.6,48,0.00,,,0.00,WUHU216HW,2013-06-03 04:41:00,
2013-06-02 21:46:00,54.5,35.2,30.04,NNE,23,0.4,1.1,48,0.00,,,0.00,WUHU216HW,2013-06-03 04:46:00,
2013-06-02 21:51:00,54.4,34.5,30.04,NE,45,0.7,1.1,47,0.00,,,0.00,WUHU216HW,2013-06-03 04:51:00,
2013-06-02 21:57:00,54.0,34.7,30.04,ESE,113,0.4,1.1,48,0.00,,,0.00,WUHU216HW,2013-06-03 04:57:00,
2013-06-02 22:02:00,53.8,34.5,30.04,SE,135,0.4,1.1,48,0.00,,,0.00,WUHU216HW,2013-06-03 05:02:00,
2013-06-02 22:07:00,53.6,34.4,30.04,SSE,158,0.0,1.1,48,0.00,,,0.00,WUHU216HW,2013-06-03 05:07:00,
2013-06-02 22:12:00,53.3,34.6,30.05,East,90,0.2,0.7,49,0.00,,,0.00,WUHU216HW,2013-06-03 05:12:00,
2013-06-02 22:17:00,52.9,34.8,30.05,NE,45,0.4,0.4,50,0.00,,,0.00,WUHU216HW,2013-06-03 05:17:00,
2013-06-02 22:22:00,52.6,33.9,30.05,NE,45,0.4,0.7,49,0.00,,,0.00,WUHU216HW,2013-06-03 05:22:00,
2013-06-02 22:27:00,52.4,34.3,30.05,SSE,158,0.4,0.7,50,0.00,,,0.00,WUHU216HW,2013-06-03 05:27:00,
2013-06-02 22:32:00,52.4,34.3,30.05,ESE,113,0.2,0.4,50,0.00,,,0.00,WUHU216HW,2013-06-03 05:32:00,
2013-06-02 22:37:00,52.2,34.2,30.05,NE,45,0.7,0.7,50,0.00,,,0.00,WUHU216HW,2013-06-03 05:37:00,
2013-06-02 22:42:00,52.2,34.7,30.05,ENE,68,1.3,1.3,51,0.00,,,0.00,WUHU216HW,2013-06-03 05:42:00,
2013-06-02 22:47:00,52.2,34.7,30.05,East,90,1.1,1.3,51,0.00,,,0.00,WUHU216HW,2013-06-03 05:47:00,
2013-06-02 22:52:00,52.0,34.5,30.05,ESE,113,0.2,1.3,51,0.00,,,0.00,WUHU216HW,2013-06-03 05:52:00,
2013-06-02 22:57:00,52.0,34.5,30.05,ENE,68,0.4,1.1,51,0.00,,,0.00,WUHU216HW,2013-06-03 05:57:00,
2013-06-02 23:02:00,51.8,34.3,30.05,NE,45,1.1,1.1,51,0.00,,,0.00,WUHU216HW,2013-06-03 06:02:00,
2013-06-02 23:07:00,51.5,33.9,30.05,NNE,23,0.9,1.1,51,0.00,,,0.00,WUHU216HW,2013-06-03 06:07:00,
2013-06-02 23:12:00,51.3,34.3,30.05,NE,45,1.3,1.3,52,0.00,,,0.00,WUHU216HW,2013-06-03 06:12:00,
2013-06-02 23:17:00,51.3,34.3,30.05,ESE,113,0.0,1.3,52,0.00,,,0.00,WUHU216HW,2013-06-03 06:17:00,
2013-06-02 23:22:00,51.1,34.1,30.05,SW,225,0.4,0.4,52,0.00,,,0.00,WUHU216HW,2013-06-03 06:22:00,
2013-06-02 23:27:00,50.6,34.0,30.05,NW,315,0.9,0.9,53,0.00,,,0.00,WUHU216HW,2013-06-03 06:27:00,
2013-06-02 23:32:00,50.0,33.6,30.05,NNE,23,0.0,0.9,53,0.00,,,0.00,WUHU216HW,2013-06-03 06:32:00,
2013-06-02 23:37:00,50.0,34.0,30.05,North,0,0.2,0.9,54,0.00,,,0.00,WUHU216HW,2013-06-03 06:37:00,
2013-06-02 23:42:00,49.5,33.5,30.05,NNW,338,0.2,0.7,54,0.00,,,0.00,WUHU216HW,2013-06-03 06:42:00,
2013-06-02 23:47:00,49.3,33.8,30.05,NNE,23,1.1,1.1,55,0.00,,,0.00,WUHU216HW,2013-06-03 06:47:00,
2013-06-02 23:52:00,49.3,33.8,30.05,North,0,0.9,1.3,55,0.00,,,0.00,WUHU216HW,2013-06-03 06:52:00,
2013-06-02 23:57:00,49.1,34.1,30.05,North,0,0.9,1.6,56,0.00,,,0.00,WUHU216HW,2013-06-03 06:57:00,